Hourly Data Report for June 29, 2021

WINNIPEG THE FORKS
MANITOBA
Current Station Operator: ECCC - MSC

49°53'18.008" N
97°07'46.007" W
230.00 m
5023262
71579
XWN

Download Data

Hourly Data (June 2021)
Hourly Data Report for June 29, 2021
TIME
LST
Temp Definition
°C
Dew Point Definition
°C
Rel Hum Definition
%
Precip. Amount Definition
mm

Wind Dir Definition
10's deg

Wind Spd Definition
km/h
Visibility Definition
km
Stn Press Definition
kPa
Hmdx Definition


Wind Chill Definition


Weather Definition


00:00 17.9 11.5 66 0.0   0   99.17     LegendNANA
01:00 16.7 11.9 73 0.0 0 1   99.18     LegendNANA
02:00 18.3 10.2 59 0.0 27 1   99.16     LegendNANA
03:00 18.1 10.7 62 0.0 29 3   99.16     LegendNANA
04:00 17.6 9.9 60 0.0 27 5   99.18     LegendNANA
05:00 16.1 10.5 70 0.0 10 2   99.19     LegendNANA
06:00 16.6 11.5 72 0.0 18 2   99.19     LegendNANA
07:00 17.8 11.6 67 0.0 19 4   99.19     LegendNANA
08:00 20.0 11.8 59 0.0 23 5   99.19     LegendNANA
09:00 22.4 12.1 52 0.0 22 6   99.15 25   LegendNANA
10:00 24.7 13.2 49 0.0 22 7   99.10 28   LegendNANA
11:00 26.8 12.9 42 0.0 34 4   99.08 30   LegendNANA
12:00 27.8 12.2 38 0.0 34 6   99.06 30   LegendNANA
13:00 28.7 10.3 32 0.0 1 7   99.03 30   LegendNANA
14:00 28.8 7.3 26 0.0 33 10   99.01 29   LegendNANA
15:00 29.5 7.0 24 0.0 15 2   98.99 30   LegendNANA
16:00 30.2 8.5 26 0.0 28 6   98.99 31   LegendNANA
17:00 30.3 8.5 26 0.0 24 4   98.94 31   LegendNANA
18:00 30.3 7.8 24 0.0 29 6   98.93 31   LegendNANA
19:00 29.7 7.2 24 0.0 29 7   98.93 30   LegendNANA
20:00 28.5 8.3 28 0.0 32 2   98.91 29   LegendNANA
21:00 27.3 8.7 31 0.0 23 3   98.96 28   LegendNANA
22:00 25.8 11.3 40 0.0 21 5   98.97 28   LegendNANA
23:00 24.6 12.6 47 0.0 22 3   98.96 27   LegendNANA

Notes on Data Quality.

Legend

  • E = Estimated
  • M = Missing
  • NA = Not Available*
  • [empty] = Indicates an unobserved value
Date modified: